Columbia Owens, SC

5:03 AM EDT on April 24, 2017 (GMT -0400)
Columbia Owens Downtown

Weather History for KCUB - February, 2013

Change the Weather History Date:

Wednesday, February 20, 2013

  Actual Average Record
Temperature  
Mean Temperature 45 °F 50 °F  
Max Temperature 59 °F 62 °F 83 °F (2014)
Min Temperature 30 °F 39 °F 16 °F (2015)
Degree Days  
Heating Degree Days 20 15  
Month to date heating degree days 337 327  
Since 1 July heating degree days 1527 1819  
Cooling Degree Days 0 0  
Month to date cooling degree days 0 0  
Year to date cooling degree days 24 1  
Moisture  
Dew Point 26 °F    
Average Humidity 55    
Maximum Humidity 92    
Minimum Humidity 19    
Precipitation  
Precipitation 0.00 in 0.16 in 0.22 in (2006)
Month to date precipitation 3.03 2.49  
Year to date precipitation 4.45 6.12  
Sea Level Pressure  
Sea Level Pressure 30.11 in    
Wind  
Wind Speed 1 mph (WSW)    
Max Wind Speed 8 mph    
Max Gust Speed 13 mph    
Visibility 10 miles    
Events      
T = Trace of Precipitation, MM = Missing Value Source: NWS Daily Summary

Daily Weather History Graph

Daily Weather History Graph

Search for Another Location

Airport or City:

Trip Planner

Search our weather history database for the weather conditions in past years. The results will help you decide how hot, cold, wet, or windy it might be!

Date:

Astronomy

Feb. 20, 2013 Rise Set
Actual Time 7:03 AM EST 6:12 PM EST
Civil Twilight 6:37 AM EST 6:38 PM EST
Nautical Twilight 6:08 AM EST 7:07 PM EST
Astronomical Twilight 5:39 AM EST 7:36 PM EST
Moon 1:41 PM EST (2/20) 3:13 AM EST (2/20)
Length of Visible Light 12h 00m
Length of Day
11h 09m
Waxing Gibbous, 76% of the Moon is Illuminated
Feb 20
Waxing Gibbous
Feb 25
Full
Mar 4
Last Quarter
Mar 11
New
Mar 19
First Quarter

Hourly Weather History & Observations

Time (EST) Temp. Windchill Dew Point Humidity Pressure Visibility Wind Dir Wind Speed Gust Speed Precip Events Conditions
12:53 AM 45.0 °F 41.8 °F 30.0 °F 56% 30.08 in 10.0 mi WNW 5.8 mph - N/A   Clear
1:53 AM 44.1 °F - 28.0 °F 53% 30.08 in 10.0 mi Calm Calm - N/A   Clear
2:53 AM 36.0 °F - 30.9 °F 82% 30.08 in 9.0 mi Calm Calm - N/A   Clear
3:53 AM 34.0 °F - 30.0 °F 85% 30.09 in 10.0 mi Calm Calm - N/A   Clear
4:53 AM 33.1 °F - 30.0 °F 89% 30.11 in 9.0 mi Calm Calm - N/A   Clear
5:53 AM 30.9 °F - 28.9 °F 92% 30.12 in 10.0 mi Calm Calm - N/A   Clear
6:53 AM 30.0 °F - 28.0 °F 92% 30.13 in 10.0 mi Calm Calm - N/A   Clear
8:53 AM 39.9 °F - 30.9 °F 70% 30.16 in 10.0 mi Calm Calm - N/A   Clear
9:53 AM 46.0 °F 43.1 °F 19.0 °F 34% 30.17 in 10.0 mi West 5.8 mph - N/A   Clear
10:53 AM 48.9 °F - 18.0 °F 29% 30.17 in 10.0 mi Calm Calm - N/A   Clear
11:53 AM 52.0 °F - 18.0 °F 26% 30.14 in 10.0 mi South 3.5 mph - N/A   Clear
12:53 PM 55.0 °F - 15.1 °F 21% 30.11 in 10.0 mi Calm Calm - N/A   Clear
1:53 PM 55.9 °F - 14.0 °F 19% 30.08 in 10.0 mi Calm Calm - N/A   Clear
2:53 PM 57.9 °F - 18.0 °F 21% 30.07 in 10.0 mi Variable 4.6 mph - N/A   Clear
5:53 PM 55.9 °F - 21.9 °F 27% 30.10 in 10.0 mi Calm Calm - N/A   Clear
6:53 PM 53.1 °F - 27.0 °F 37% 30.12 in 10.0 mi Calm Calm - N/A   Clear
7:53 PM 50.0 °F - 32.0 °F 50% 30.09 in 10.0 mi Calm Calm - N/A   Clear
8:53 PM 48.0 °F - 34.0 °F 58% 30.09 in 10.0 mi Calm Calm - N/A   Mostly Cloudy
9:53 PM 44.1 °F - 34.0 °F 68% 30.10 in 10.0 mi Calm Calm - N/A   Clear
10:53 PM 41.0 °F - 34.0 °F 76% 30.11 in 10.0 mi Calm Calm - N/A   Clear
11:53 PM 39.0 °F - 33.1 °F 79% 30.11 in 10.0 mi Calm Calm - N/A   Clear